Time,TemperatureF,DewpointF,PressureIn,WindDirection,WindDirectionDegrees,WindSpeedMPH,WindSpeedGustMPH,Humidity,HourlyPrecipIn,Conditions,Clouds,dailyrainin,SolarRadiationWatts/m^2,SoftwareType,DateUTC
2013-05-08 00:02:00,72.0,61.0,-100.00,West,276,4.0,-999.0,69,0.00,,,-99.99,0.000000,,2013-05-08 04:02:00,
2013-05-08 00:13:00,71.0,61.0,-100.00,WNW,291,4.0,-999.0,70,0.00,,,-99.99,0.000000,,2013-05-08 04:13:00,
2013-05-08 00:23:00,71.0,61.0,-100.00,WNW,291,4.0,-999.0,70,0.00,,,-99.99,0.000000,,2013-05-08 04:23:00,
2013-05-08 00:33:00,71.0,61.0,-100.00,WNW,284,5.0,-999.0,72,0.00,,,-99.99,0.000000,,2013-05-08 04:33:00,
2013-05-08 00:43:00,71.0,62.0,-100.00,WNW,292,5.0,-999.0,73,0.00,,,-99.99,0.000000,,2013-05-08 04:43:00,
2013-05-08 00:53:00,71.0,62.0,-100.00,WNW,292,5.0,-999.0,73,0.00,,,-99.99,0.000000,,2013-05-08 04:53:00,
2013-05-08 01:02:00,70.0,62.0,-100.00,WNW,301,4.0,-999.0,74,0.00,,,-99.99,0.000000,,2013-05-08 05:02:00,
2013-05-08 01:12:00,70.0,62.0,-100.00,WNW,298,4.0,-999.0,75,0.00,,,-99.99,0.000000,,2013-05-08 05:12:00,
2013-05-08 01:22:00,70.0,62.0,-100.00,WNW,298,4.0,-999.0,75,0.00,,,-99.99,0.000000,,2013-05-08 05:22:00,
2013-05-08 01:32:00,70.0,62.0,-100.00,WNW,298,5.0,-999.0,75,0.00,,,-99.99,0.000000,,2013-05-08 05:32:00,
2013-05-08 01:42:00,70.0,62.0,-100.00,WNW,292,4.0,-999.0,76,0.00,,,-99.99,0.000000,,2013-05-08 05:42:00,
2013-05-08 01:52:00,70.0,62.0,-100.00,WNW,292,4.0,-999.0,76,0.00,,,-99.99,0.000000,,2013-05-08 05:52:00,
2013-05-08 02:01:00,69.0,62.0,-100.00,WNW,285,4.0,-999.0,79,0.00,,,-99.99,0.000000,,2013-05-08 06:01:00,
2013-05-08 02:12:00,69.0,62.0,-100.00,WNW,294,4.0,-999.0,80,0.00,,,-99.99,0.000000,,2013-05-08 06:12:00,
2013-05-08 02:21:00,69.0,62.0,-100.00,WNW,294,4.0,-999.0,80,0.00,,,-99.99,0.000000,,2013-05-08 06:21:00,
2013-05-08 02:32:00,68.0,62.0,-100.00,West,278,3.0,-999.0,81,0.00,,,-99.99,0.000000,,2013-05-08 06:32:00,
2013-05-08 02:42:00,68.0,62.0,-100.00,WNW,284,3.0,-999.0,82,0.00,,,-99.99,0.000000,,2013-05-08 06:42:00,
2013-05-08 02:52:00,68.0,62.0,-100.00,WNW,284,3.0,-999.0,82,0.00,,,-99.99,0.000000,,2013-05-08 06:52:00,
2013-05-08 03:02:00,68.0,62.0,-100.00,WNW,285,2.0,-999.0,83,0.00,,,-99.99,0.000000,,2013-05-08 07:02:00,
2013-05-08 03:11:00,67.0,62.0,-100.00,WNW,300,3.0,-999.0,84,0.00,,,-99.99,0.000000,,2013-05-08 07:11:00,
2013-05-08 03:21:00,67.0,62.0,-100.00,WNW,300,3.0,-999.0,84,0.00,,,-99.99,0.000000,,2013-05-08 07:21:00,
2013-05-08 03:32:00,67.0,63.0,-100.00,WNW,297,3.0,-999.0,85,0.00,,,-99.99,0.000000,,2013-05-08 07:32:00,
2013-05-08 03:42:00,67.0,62.0,-100.00,West,278,2.0,-999.0,85,0.00,,,-99.99,0.000000,,2013-05-08 07:42:00,
2013-05-08 03:52:00,67.0,62.0,-100.00,West,278,2.0,-999.0,85,0.00,,,-99.99,0.000000,,2013-05-08 07:52:00,
2013-05-08 04:02:00,67.0,62.0,-100.00,WNW,289,3.0,-999.0,86,0.00,,,-99.99,0.000000,,2013-05-08 08:02:00,
2013-05-08 04:12:00,66.0,62.0,-100.00,WNW,294,3.0,-999.0,86,0.00,,,-99.99,0.000000,,2013-05-08 08:12:00,
2013-05-08 04:21:00,66.0,62.0,-100.00,WNW,294,3.0,-999.0,86,0.00,,,-99.99,0.000000,,2013-05-08 08:21:00,
2013-05-08 04:32:00,66.0,62.0,-100.00,WNW,294,3.0,-999.0,87,0.00,,,-99.99,0.000000,,2013-05-08 08:32:00,
2013-05-08 04:42:00,66.0,62.0,-100.00,West,279,2.0,-999.0,87,0.00,,,-99.99,0.000000,,2013-05-08 08:42:00,
2013-05-08 04:52:00,66.0,62.0,-100.00,West,279,2.0,-999.0,87,0.00,,,-99.99,0.000000,,2013-05-08 08:52:00,
2013-05-08 05:02:00,65.0,62.0,-100.00,WNW,295,2.0,-999.0,88,0.00,,,-99.99,0.000000,,2013-05-08 09:02:00,
2013-05-08 05:11:00,65.0,62.0,-100.00,West,273,2.0,-999.0,89,0.00,,,-99.99,0.000000,,2013-05-08 09:11:00,
2013-05-08 05:21:00,65.0,62.0,-100.00,West,273,2.0,-999.0,89,0.00,,,-99.99,0.000000,,2013-05-08 09:21:00,
2013-05-08 05:32:00,65.0,62.0,-100.00,West,272,3.0,-999.0,89,0.00,,,-99.99,0.000000,,2013-05-08 09:32:00,
2013-05-08 05:42:00,65.0,62.0,-100.00,West,276,3.0,-999.0,88,0.00,,,-99.99,0.000000,,2013-05-08 09:42:00,
2013-05-08 05:53:00,65.0,62.0,-100.00,West,276,3.0,-999.0,88,0.00,,,-99.99,0.000000,,2013-05-08 09:53:00,
2013-05-08 06:02:00,65.0,62.0,-100.00,West,278,3.0,-999.0,89,0.00,,,-99.99,0.000000,,2013-05-08 10:02:00,
2013-05-08 06:12:00,65.0,62.0,-100.00,WNW,298,4.0,-999.0,89,0.00,,,-99.99,0.000000,,2013-05-08 10:12:00,
2013-05-08 06:22:00,65.0,62.0,-100.00,WNW,298,4.0,-999.0,89,0.00,,,-99.99,0.000000,,2013-05-08 10:22:00,
2013-05-08 06:33:00,65.0,62.0,-100.00,WNW,294,4.0,-999.0,89,0.00,,,-99.99,0.000000,,2013-05-08 10:33:00,
2013-05-08 06:42:00,65.0,62.0,-100.00,WNW,291,3.0,-999.0,90,0.00,,,-99.99,0.200000,,2013-05-08 10:42:00,
2013-05-08 06:52:00,65.0,62.0,-100.00,WNW,291,3.0,-999.0,90,0.00,,,-99.99,0.200000,,2013-05-08 10:52:00,
2013-05-08 07:02:00,65.0,62.0,-100.00,WNW,283,3.0,-999.0,90,0.00,,,-99.99,4.100000,,2013-05-08 11:02:00,
2013-05-08 07:11:00,65.0,62.0,-100.00,WNW,295,3.0,-999.0,90,0.00,,,-99.99,24.299999,,2013-05-08 11:11:00,
2013-05-08 07:22:00,65.0,62.0,-100.00,WNW,295,3.0,-999.0,90,0.00,,,-99.99,24.299999,,2013-05-08 11:22:00,
2013-05-08 07:32:00,66.0,63.0,-100.00,WNW,290,3.0,-999.0,90,0.00,,,-99.99,65.500000,,2013-05-08 11:32:00,
2013-05-08 07:42:00,66.0,63.0,-100.00,West,278,2.0,-999.0,89,0.00,,,-99.99,109.400002,,2013-05-08 11:42:00,
2013-05-08 07:52:00,66.0,63.0,-100.00,West,278,2.0,-999.0,89,0.00,,,-99.99,109.400002,,2013-05-08 11:52:00,
2013-05-08 08:01:00,68.0,64.0,-100.00,West,276,3.0,-999.0,87,0.00,,,-99.99,158.899994,,2013-05-08 12:01:00,
2013-05-08 08:11:00,69.0,64.0,-100.00,West,278,2.0,-999.0,84,0.00,,,-99.99,213.000000,,2013-05-08 12:11:00,
2013-05-08 08:21:00,69.0,64.0,-100.00,West,278,2.0,-999.0,84,0.00,,,-99.99,213.000000,,2013-05-08 12:21:00,
2013-05-08 08:32:00,70.0,64.0,-100.00,West,279,2.0,-999.0,82,0.00,,,-99.99,267.399994,,2013-05-08 12:32:00,
2013-05-08 08:41:00,71.0,64.0,-100.00,West,269,2.0,-999.0,78,0.00,,,-99.99,323.200012,,2013-05-08 12:41:00,
2013-05-08 08:52:00,71.0,64.0,-100.00,West,269,2.0,-999.0,78,0.00,,,-99.99,323.200012,,2013-05-08 12:52:00,
2013-05-08 09:01:00,72.0,64.0,-100.00,WSW,247,2.0,-999.0,75,0.00,,,-99.99,378.899994,,2013-05-08 13:01:00,
2013-05-08 09:12:00,72.0,63.0,-100.00,West,268,2.0,-999.0,73,0.00,,,-99.99,435.700012,,2013-05-08 13:12:00,
2013-05-08 09:21:00,72.0,63.0,-100.00,West,268,2.0,-999.0,73,0.00,,,-99.99,435.700012,,2013-05-08 13:21:00,
2013-05-08 09:32:00,73.0,63.0,-100.00,West,281,2.0,-999.0,71,0.00,,,-99.99,490.700012,,2013-05-08 13:32:00,
2013-05-08 09:42:00,74.0,63.0,-100.00,WNW,283,3.0,-999.0,68,0.00,,,-99.99,545.900024,,2013-05-08 13:42:00,
2013-05-08 09:52:00,74.0,63.0,-100.00,WNW,283,3.0,-999.0,68,0.00,,,-99.99,545.900024,,2013-05-08 13:52:00,
2013-05-08 10:02:00,74.0,62.0,-100.00,West,277,3.0,-999.0,65,0.00,,,-99.99,598.799988,,2013-05-08 14:02:00,
2013-05-08 10:11:00,75.0,62.0,-100.00,WNW,296,5.0,-999.0,63,0.00,,,-99.99,649.700012,,2013-05-08 14:11:00,
2013-05-08 10:21:00,75.0,62.0,-100.00,WNW,296,5.0,-999.0,63,0.00,,,-99.99,649.700012,,2013-05-08 14:21:00,
2013-05-08 10:32:00,75.0,62.0,-100.00,West,269,3.0,-999.0,62,0.00,,,-99.99,700.000000,,2013-05-08 14:32:00,
2013-05-08 10:42:00,76.0,61.0,-100.00,West,274,4.0,-999.0,59,0.00,,,-99.99,750.000000,,2013-05-08 14:42:00,
2013-05-08 10:52:00,76.0,61.0,-100.00,West,274,4.0,-999.0,59,0.00,,,-99.99,750.000000,,2013-05-08 14:52:00,
2013-05-08 11:02:00,77.0,61.0,-100.00,NW,305,5.0,-999.0,57,0.00,,,-99.99,793.000000,,2013-05-08 15:02:00,
2013-05-08 11:11:00,77.0,60.0,-100.00,West,277,4.0,-999.0,55,0.00,,,-99.99,835.000000,,2013-05-08 15:11:00,
2013-05-08 11:21:00,77.0,60.0,-100.00,West,277,4.0,-999.0,55,0.00,,,-99.99,835.000000,,2013-05-08 15:21:00,
2013-05-08 11:33:00,78.0,60.0,-100.00,West,275,4.0,-999.0,54,0.00,,,-99.99,871.000000,,2013-05-08 15:33:00,
2013-05-08 11:42:00,79.0,59.0,-100.00,West,278,5.0,-999.0,51,0.00,,,-99.99,909.000000,,2013-05-08 15:42:00,
2013-05-08 11:53:00,79.0,59.0,-100.00,West,278,5.0,-999.0,51,0.00,,,-99.99,909.000000,,2013-05-08 15:53:00,
2013-05-08 12:03:00,79.0,58.0,-100.00,WSW,246,6.0,-999.0,48,0.00,,,-99.99,940.000000,,2013-05-08 16:03:00,
2013-05-08 12:12:00,79.0,58.0,-100.00,WSW,254,4.0,-999.0,48,0.00,,,-99.99,965.000000,,2013-05-08 16:12:00,
2013-05-08 12:23:00,79.0,58.0,-100.00,WSW,254,4.0,-999.0,48,0.00,,,-99.99,965.000000,,2013-05-08 16:23:00,
2013-05-08 12:33:00,80.0,59.0,-100.00,WNW,286,8.0,-999.0,47,0.00,,,-99.99,988.000000,,2013-05-08 16:33:00,
2013-05-08 12:42:00,81.0,59.0,-100.00,WNW,287,6.0,-999.0,48,0.00,,,-99.99,1003.000000,,2013-05-08 16:42:00,
2013-05-08 12:52:00,81.0,59.0,-100.00,WNW,287,6.0,-999.0,48,0.00,,,-99.99,1003.000000,,2013-05-08 16:52:00,
2013-05-08 13:02:00,81.0,60.0,-100.00,WNW,299,6.0,-999.0,49,0.00,,,-99.99,1013.000000,,2013-05-08 17:02:00,
2013-05-08 13:12:00,82.0,61.0,-100.00,West,271,7.0,-999.0,48,0.00,,,-99.99,1021.000000,,2013-05-08 17:12:00,
2013-05-08 13:22:00,82.0,61.0,-100.00,West,271,7.0,-999.0,48,0.00,,,-99.99,1021.000000,,2013-05-08 17:22:00,
2013-05-08 13:32:00,82.0,61.0,-100.00,West,271,7.0,-999.0,48,0.00,,,-99.99,1021.000000,,2013-05-08 17:32:00,
2013-05-08 13:41:00,82.0,61.0,-100.00,West,271,7.0,-999.0,48,0.00,,,-99.99,1021.000000,,2013-05-08 17:41:00,
2013-05-08 13:52:00,83.0,60.0,-100.00,West,281,6.0,-999.0,46,0.00,,,-99.99,998.000000,,2013-05-08 17:52:00,
2013-05-08 14:02:00,84.0,59.0,-100.00,WSW,255,7.0,-999.0,43,0.00,,,-99.99,1021.000000,,2013-05-08 18:02:00,
2013-05-08 14:12:00,84.0,60.0,-100.00,West,277,7.0,-999.0,44,0.00,,,-99.99,1010.000000,,2013-05-08 18:12:00,
2013-05-08 14:21:00,84.0,60.0,-100.00,West,277,7.0,-999.0,44,0.00,,,-99.99,1010.000000,,2013-05-08 18:21:00,
2013-05-08 14:32:00,85.0,59.0,-100.00,WSW,258,8.0,-999.0,41,0.00,,,-99.99,1004.000000,,2013-05-08 18:32:00,
2013-05-08 14:42:00,84.0,60.0,-100.00,WSW,237,5.0,-999.0,42,0.00,,,-99.99,984.000000,,2013-05-08 18:42:00,
2013-05-08 14:52:00,84.0,60.0,-100.00,WSW,237,5.0,-999.0,42,0.00,,,-99.99,984.000000,,2013-05-08 18:52:00,
2013-05-08 15:01:00,85.0,59.0,-100.00,WSW,253,8.0,-999.0,41,0.00,,,-99.99,954.000000,,2013-05-08 19:01:00,
2013-05-08 15:11:00,85.0,60.0,-100.00,West,260,6.0,-999.0,42,0.00,,,-99.99,936.000000,,2013-05-08 19:11:00,
2013-05-08 15:22:00,85.0,60.0,-100.00,West,260,6.0,-999.0,42,0.00,,,-99.99,936.000000,,2013-05-08 19:22:00,
2013-05-08 15:32:00,85.0,60.0,-100.00,WSW,238,5.0,-999.0,42,0.00,,,-99.99,904.000000,,2013-05-08 19:32:00,
2013-05-08 15:42:00,86.0,60.0,-100.00,West,272,8.0,-999.0,41,0.00,,,-99.99,877.000000,,2013-05-08 19:42:00,
2013-05-08 15:52:00,86.0,60.0,-100.00,West,272,8.0,-999.0,41,0.00,,,-99.99,877.000000,,2013-05-08 19:52:00,
2013-05-08 16:02:00,86.0,59.0,-100.00,West,273,7.0,-999.0,40,0.00,,,-99.99,838.000000,,2013-05-08 20:02:00,
2013-05-08 16:11:00,86.0,59.0,-100.00,West,272,7.0,-999.0,40,0.00,,,-99.99,795.000000,,2013-05-08 20:11:00,
2013-05-08 16:22:00,86.0,59.0,-100.00,West,272,7.0,-999.0,40,0.00,,,-99.99,795.000000,,2013-05-08 20:22:00,
2013-05-08 16:32:00,87.0,59.0,-100.00,West,279,8.0,-999.0,39,0.00,,,-99.99,755.000000,,2013-05-08 20:32:00,
2013-05-08 16:42:00,87.0,58.0,-100.00,West,265,8.0,-999.0,37,0.00,,,-99.99,708.000000,,2013-05-08 20:42:00,
2013-05-08 16:52:00,87.0,58.0,-100.00,West,265,8.0,-999.0,37,0.00,,,-99.99,708.000000,,2013-05-08 20:52:00,
2013-05-08 17:01:00,87.0,58.0,-100.00,West,276,9.0,-999.0,36,0.00,,,-99.99,661.000000,,2013-05-08 21:01:00,
2013-05-08 17:12:00,87.0,58.0,-100.00,West,269,8.0,-999.0,37,0.00,,,-99.99,609.400024,,2013-05-08 21:12:00,
2013-05-08 17:21:00,87.0,58.0,-100.00,West,269,8.0,-999.0,37,0.00,,,-99.99,609.400024,,2013-05-08 21:21:00,
2013-05-08 17:33:00,87.0,59.0,-100.00,WNW,282,9.0,-999.0,38,0.00,,,-99.99,558.200012,,2013-05-08 21:33:00,
2013-05-08 17:43:00,87.0,59.0,-100.00,WNW,282,8.0,-999.0,38,0.00,,,-99.99,506.100006,,2013-05-08 21:43:00,
2013-05-08 17:53:00,87.0,59.0,-100.00,WNW,282,8.0,-999.0,38,0.00,,,-99.99,506.100006,,2013-05-08 21:53:00,
2013-05-08 18:03:00,87.0,58.0,-100.00,WNW,282,9.0,-999.0,37,0.00,,,-99.99,455.100006,,2013-05-08 22:03:00,
2013-05-08 18:12:00,87.0,58.0,-100.00,West,265,7.0,-999.0,38,0.00,,,-99.99,369.600006,,2013-05-08 22:12:00,
2013-05-08 18:22:00,87.0,58.0,-100.00,West,265,7.0,-999.0,38,0.00,,,-99.99,369.600006,,2013-05-08 22:22:00,
2013-05-08 18:33:00,86.0,59.0,-100.00,West,279,7.0,-999.0,40,0.00,,,-99.99,340.899994,,2013-05-08 22:33:00,
2013-05-08 18:42:00,86.0,59.0,-100.00,WNW,285,7.0,-999.0,40,0.00,,,-99.99,279.799988,,2013-05-08 22:42:00,
2013-05-08 18:53:00,86.0,59.0,-100.00,WNW,285,7.0,-999.0,40,0.00,,,-99.99,279.799988,,2013-05-08 22:53:00,
2013-05-08 19:01:00,86.0,58.0,-100.00,West,278,6.0,-999.0,38,0.00,,,-99.99,236.300003,,2013-05-08 23:01:00,
2013-05-08 19:12:00,86.0,58.0,-100.00,West,273,7.0,-999.0,38,0.00,,,-99.99,171.699997,,2013-05-08 23:12:00,
2013-05-08 19:22:00,86.0,58.0,-100.00,West,273,7.0,-999.0,38,0.00,,,-99.99,171.699997,,2013-05-08 23:22:00,
2013-05-08 19:32:00,85.0,58.0,-100.00,West,270,5.0,-999.0,39,0.00,,,-99.99,117.400002,,2013-05-08 23:32:00,
2013-05-08 19:42:00,85.0,60.0,-100.00,NNW,327,3.0,-999.0,42,0.00,,,-99.99,69.400002,,2013-05-08 23:42:00,
2013-05-08 19:52:00,85.0,60.0,-100.00,NNW,327,3.0,-999.0,42,0.00,,,-99.99,69.400002,,2013-05-08 23:52:00,
2013-05-08 20:02:00,82.0,65.0,-100.00,ESE,110,4.0,-999.0,56,0.00,,,-99.99,27.799999,,2013-05-09 00:02:00,
2013-05-08 20:12:00,81.0,66.0,-100.00,SSE,162,4.0,-999.0,60,0.00,,,-99.99,6.700000,,2013-05-09 00:12:00,
2013-05-08 20:21:00,81.0,66.0,-100.00,SSE,162,4.0,-999.0,60,0.00,,,-99.99,6.700000,,2013-05-09 00:21:00,
2013-05-08 20:32:00,80.0,66.0,-100.00,SSE,158,3.0,-999.0,61,0.00,,,-99.99,0.500000,,2013-05-09 00:32:00,
2013-05-08 20:42:00,80.0,66.0,-100.00,South,169,5.0,-999.0,61,0.00,,,-99.99,0.000000,,2013-05-09 00:42:00,
2013-05-08 20:52:00,80.0,66.0,-100.00,South,169,5.0,-999.0,61,0.00,,,-99.99,0.000000,,2013-05-09 00:52:00,
2013-05-08 21:01:00,80.0,65.0,-100.00,SSE,149,4.0,-999.0,61,0.00,,,-99.99,0.000000,,2013-05-09 01:01:00,
2013-05-08 21:12:00,80.0,66.0,-100.00,SSE,161,4.0,-999.0,62,0.00,,,-99.99,0.000000,,2013-05-09 01:12:00,
2013-05-08 21:22:00,80.0,66.0,-100.00,SSE,161,4.0,-999.0,62,0.00,,,-99.99,0.000000,,2013-05-09 01:22:00,
2013-05-08 21:32:00,79.0,66.0,-100.00,SSW,194,2.0,-999.0,64,0.00,,,-99.99,0.000000,,2013-05-09 01:32:00,
2013-05-08 21:42:00,78.0,66.0,-100.00,North,0,0.0,-999.0,66,0.00,,,-99.99,0.000000,,2013-05-09 01:42:00,
2013-05-08 21:52:00,78.0,66.0,-100.00,North,0,0.0,-999.0,66,0.00,,,-99.99,0.000000,,2013-05-09 01:52:00,
2013-05-08 22:02:00,78.0,67.0,-100.00,North,0,0.0,-999.0,68,0.00,,,-99.99,0.000000,,2013-05-09 02:02:00,
2013-05-08 22:12:00,78.0,67.0,-100.00,North,0,0.0,-999.0,69,0.00,,,-99.99,0.000000,,2013-05-09 02:12:00,
2013-05-08 22:22:00,78.0,67.0,-100.00,North,0,0.0,-999.0,69,0.00,,,-99.99,0.000000,,2013-05-09 02:22:00,
2013-05-08 22:32:00,78.0,67.0,-100.00,North,0,0.0,-999.0,70,0.00,,,-99.99,0.000000,,2013-05-09 02:32:00,
2013-05-08 22:42:00,78.0,67.0,-100.00,North,0,0.0,-999.0,70,0.00,,,-99.99,0.000000,,2013-05-09 02:42:00,
2013-05-08 22:52:00,78.0,67.0,-100.00,North,0,0.0,-999.0,70,0.00,,,-99.99,0.000000,,2013-05-09 02:52:00,
2013-05-08 23:01:00,77.0,64.0,-100.00,North,0,0.0,-999.0,63,0.00,,,-99.99,0.000000,,2013-05-09 03:01:00,
2013-05-08 23:11:00,77.0,61.0,-100.00,North,0,0.0,-999.0,57,0.00,,,-99.99,0.000000,,2013-05-09 03:11:00,
2013-05-08 23:21:00,77.0,61.0,-100.00,North,0,0.0,-999.0,57,0.00,,,-99.99,0.000000,,2013-05-09 03:21:00,
2013-05-08 23:33:00,77.0,60.0,-100.00,North,0,0.0,-999.0,56,0.00,,,-99.99,0.000000,,2013-05-09 03:33:00,
2013-05-08 23:43:00,76.0,60.0,-100.00,North,0,0.0,-999.0,57,0.00,,,-99.99,0.000000,,2013-05-09 03:43:00,
2013-05-08 23:53:00,76.0,60.0,-100.00,North,0,0.0,-999.0,57,0.00,,,-99.99,0.000000,,2013-05-09 03:53:00,